Location: Lombard
(41.8800°N, 88.0080°W)
Time: 05:26:36
(UTC-05:00)

Vanguard 2 Rocket - Pass Details

Date: 26 February 2024
Orbit: 555 x 3307 km, 32.9° (Epoch: 12 April)

Event Time Altitude Azimuth Distance (km) Brightness Sun altitude
Rises 19:32:37 0° 276° (W) 5,901 12.6 -22.0°
Reaches altitude 10° 19:36:33 10° 268° (W) 5,229 11.8 -22.7°
Maximum altitude 19:50:39 36° 211° (SSW) 4,282 10.4 -25.3°
Drops below altitude 10° 20:07:34 10° 154° (SSE) 6,196 10.8 -28.4°
Enters shadow 20:08:28 - 152° (SSE) 6,339 10.8 -28.5°
Sets 20:12:52 0° 146° (SSE) 7,071 - -29.3°
